Location: Wiesbaden
(50.0830°N, 8.2500°E)
Time: 07:29:41
(UTC+02:00)

ISS - Pass Details

Date: 21 May 2019
Orbit: 408 x 418 km, 51.6° (Epoch: 27 May)

Event Time Altitude Azimuth Distance (km) Brightness Sun altitude
Rises 21:51:48 0° 231° (SW) 2,341 0.2 -5.6°
Reaches altitude 10° 21:53:56 10° 224° (SW) 1,483 -0.9 -5.8°
Maximum altitude 21:57:07 43° 152° (SSE) 592 -3.4 -6.2°
Drops below altitude 10° 22:00:13 11° 80° (E) 1,454 -1.4 -6.6°
Sets 22:02:29 0° 73° (ENE) 2,363 -0.2 -6.8°
